Location: Lombard
(41.8800°N, 88.0080°W)
Time: 18:24:13
(UTC-06:00)

Vanguard 3 - Pass Details

Date: 09 December 2023
Orbit: 508 x 3239 km, 33.4° (Epoch: 23 February)

Event Time Altitude Azimuth Distance (km) Brightness Sun altitude
Rises 18:20:36 0° 216° (SW) 7,183 12.7 -21.5°
Reaches altitude 10° 18:26:23 10° 208° (SSW) 6,056 12.1 -22.6°
Maximum altitude 18:41:22 33° 154° (SSE) 3,727 10.3 -25.3°
Enters shadow 18:46:38 26° 121° (ESE) 3,687 10.0 -26.3°
